This is the latest recevied weather packets stored in our database for station/object KD0SBN. If no packets are shown the sender has not sent any weather packets the latest 10 day(s).
| Time | Temp. | Humidity | Pressure | Rain* | Wind** | Luminosity | Snow |
|---|---|---|---|---|---|---|---|
| 1778200629 | 21.67° C | 30% | 1012 hPa | 0 mm | - | - | - |
| 1778200326 | 21.67° C | 31% | 1011.8 hPa | 0 mm | - | - | - |
| 1778200023 | 21.67° C | 31% | 1012 hPa | 0 mm | - | - | - |
| 1778199721 | 21.67° C | 28% | 1011.8 hPa | 0 mm | - | - | - |
| 1778199415 | 22.22° C | 28% | 1012 hPa | 0 mm | - | - | - |
| 1778199112 | 22.22° C | 28% | 1012 hPa | 0 mm | - | - | - |
| 1778198808 | 22.78° C | 29% | 1011.9 hPa | 0 mm | - | - | - |
| 1778198505 | 22.78° C | 29% | 1012 hPa | 0 mm | - | - | - |
| 1778198202 | 22.78° C | 27% | 1011.5 hPa | 0 mm | - | - | - |
| 1778197899 | 22.78° C | 28% | 1011.8 hPa | 0 mm | - | - | - |
| 1778197596 | 22.78° C | 29% | 1011.8 hPa | 0 mm | - | - | - |
| 1778197292 | 22.22° C | 28% | 1011.8 hPa | 0 mm | - | - | - |
| 1778196989 | 21.67° C | 30% | 1011.8 hPa | 0 mm | - | - | - |
| 1778196688 | 22.22° C | 30% | 1012 hPa | 0 mm | - | - | - |
| 1778196384 | 21.67° C | 30% | 1012.1 hPa | 0 mm | - | - | - |
| 1778196081 | 21.67° C | 32% | 1012.2 hPa | 0 mm | - | - | - |
| 1778195777 | 21.67° C | 30% | 1012.2 hPa | 0 mm | - | - | - |
| 1778195475 | 21.67° C | 30% | 1012.2 hPa | 0 mm | - | - | - |
| 1778195171 | 22.22° C | 30% | 1012 hPa | 0 mm | - | - | - |
| 1778194868 | 22.22° C | 29% | 1012 hPa | 0 mm | - | - | - |
| 1778194563 | 22.22° C | 29% | 1012 hPa | 0 mm | - | - | - |
| 1778194260 | 22.22° C | 28% | 1012 hPa | 0 mm | - | - | - |
| 1778193955 | 22.22° C | 29% | 1011.9 hPa | 0 mm | - | - | - |
| 1778193652 | 22.78° C | 30% | 1011.9 hPa | 0 mm | - | - | - |
| 1778193348 | 22.22° C | 29% | 1012.2 hPa | 0 mm | - | - | - |
* Rain latest hour (hover to see other rain measurements)
** Current wind speed in m/s (hover to see current wind gust speed)